Location: Coche
(10.4506°N, 66.9257°W)
Time: 11:58:21
(UTC+00:00)

N. Korean satellite - Visible Passes

Search period start: 28 November 2022 00:00
Search period end: 08 December 2022 00:00
Orbit: 422 x 454 km, 97.3° (Epoch: 28 November)

Date Brightness Start Highest point End Pass type
(mag) Time Alt. Az. Time Alt. Az. Time Alt. Az.
28 Nov 8.2 09:07:04 10° NNE 09:10:10 34° E 09:13:14 10° SSE visible
29 Nov 7.6 10:01:08 10° NNW 10:03:50 23° WNW 10:06:31 10° SW visible
30 Nov 6.7 09:21:54 10° NNE 09:25:15 66° E 09:28:34 10° S visible
01 Dec 9.7 08:44:47 10° ENE 08:46:32 14° E 08:48:16 10° SE visible
02 Dec 6.3 09:36:51 10° N 09:40:10 62° W 09:43:27 10° SSW visible
03 Dec 8.9 08:58:40 10° NE 09:01:24 23° E 09:04:07 10° SSE visible
04 Dec 7.1 09:51:53 10° NNW 09:54:55 32° WNW 09:57:54 10° SW visible
05 Dec 7.6 09:12:56 10° NNE 09:16:07 42° E 09:19:15 10° S visible
06 Dec 7.8 10:07:07 10° NNW 10:09:29 18° WNW 10:11:50 10° WSW visible
07 Dec 6.3 09:27:20 10° NNE 09:30:39 84° E 09:33:55 10° S visible
